Change the Weather History Date:

Sunday, November 24, 2013

  Actual Average Record
Temperature  
Mean Temperature 40 °F 54 °F  
Max Temperature 53 °F 66 °F 79 °F (1986)
Min Temperature 27 °F 43 °F 23 °F (1970)
Degree Days  
Heating Degree Days 25 11  
Month to date heating degree days 212 200  
Since 1 July heating degree days 284 297  
Cooling Degree Days 0 0  
Month to date cooling degree days 23 23  
Year to date cooling degree days 1892 2037  
Moisture  
Dew Point 13 °F    
Average Humidity 32    
Maximum Humidity 45    
Minimum Humidity 18    
Precipitation  
Precipitation 0.00 in 0.12 in 1.16 in (1983)
Month to date precipitation 1.69 2.59  
Year to date precipitation 47.43 53.29  
Snow  
Snow 0.00 in 0.00 in - ()
Month to date snowfall T 0.0  
Since 1 July snowfall T 0.0  
Since 1 September snowfall T 0.0  
Snow Depth 0.00 in    
Sea Level Pressure  
Sea Level Pressure 30.36 in    
Wind  
Wind Speed 12 mph (North)    
Max Wind Speed 23 mph    
Max Gust Speed 31 mph    
Visibility 10 miles    
Events      
T = Trace of Precipitation, MM = Missing Value Source: NWS Daily Summary

Daily Weather History Graph

Daily Weather History Graph

Search for Another Location

Airport or City:

Trip Planner

Search our weather history database for the weather conditions in past years. The results will help you decide how hot, cold, wet, or windy it might be!

Date:

Astronomy

Nov. 24, 2013 Rise Set
Actual Time 6:53 AM EST 5:03 PM EST
Civil Twilight 6:26 AM EST 5:30 PM EST
Nautical Twilight 5:55 AM EST 6:01 PM EST
Astronomical Twilight 5:25 AM EST 6:31 PM EST
Moon 11:18 PM EST (11/24) 11:47 AM EST (11/24)
Length of Visible Light 11h 04m
Length of Day
10h 09m
Waning Gibbous, 61% of the Moon is Illuminated
Nov 24
Waning Gibbous
Nov 25
Last Quarter
Dec 2
New
Dec 9
First Quarter
Dec 17
Full

Hourly Weather History & Observations

Time (EST) Temp. Windchill Dew Point Humidity Pressure Visibility Wind Dir Wind Speed Gust Speed Precip Events Conditions
12:53 AM 50.0 °F - 28.0 °F 43% 30.12 in 10.0 mi NNW 13.8 mph 18.4 mph N/A   Clear
1:53 AM 46.9 °F - 21.9 °F 37% 30.14 in 10.0 mi North 12.7 mph 20.7 mph N/A   Clear
2:53 AM 45.0 °F 38.9 °F 21.9 °F 40% 30.17 in 10.0 mi North 12.7 mph - N/A   Clear
3:53 AM 43.0 °F 37.7 °F 21.9 °F 43% 30.18 in 10.0 mi NNW 9.2 mph - N/A   Clear
4:53 AM 41.0 °F 34.7 °F 21.9 °F 47% 30.22 in 10.0 mi North 10.4 mph - N/A   Clear
5:53 AM 39.9 °F 31.8 °F 19.0 °F 43% 30.25 in 10.0 mi North 15.0 mph 23.0 mph N/A   Clear
6:53 AM 37.9 °F 30.0 °F 16.0 °F 41% 30.29 in 10.0 mi NNW 12.7 mph 20.7 mph N/A   Clear
7:53 AM 37.9 °F 28.5 °F 15.1 °F 39% 30.32 in 10.0 mi North 17.3 mph 23.0 mph N/A   Clear
8:53 AM 39.0 °F 29.3 °F 12.9 °F 34% 30.36 in 10.0 mi NNW 19.6 mph 26.5 mph N/A   Clear
9:53 AM 41.0 °F 32.8 °F 12.9 °F 32% 30.38 in 10.0 mi North 16.1 mph 28.8 mph N/A   Clear
10:53 AM 41.0 °F 32.2 °F 8.1 °F 26% 30.39 in 10.0 mi North 18.4 mph 28.8 mph N/A   Clear
11:53 AM 43.0 °F 35.7 °F 8.1 °F 24% 30.39 in 10.0 mi NNW 15.0 mph 26.5 mph N/A   Clear
12:53 PM 45.0 °F 38.9 °F 8.1 °F 22% 30.38 in 10.0 mi North 12.7 mph 25.3 mph N/A   Clear
1:53 PM 44.1 °F 36.5 °F 3.9 °F 19% 30.37 in 10.0 mi North 17.3 mph 27.6 mph N/A   Clear
2:53 PM 44.1 °F 35.9 °F 5.0 °F 20% 30.38 in 10.0 mi North 19.6 mph 29.9 mph N/A   Clear
3:53 PM 41.0 °F 33.5 °F 3.0 °F 21% 30.40 in 10.0 mi North 13.8 mph 21.9 mph N/A   Clear
4:53 PM 37.9 °F 31.5 °F 3.9 °F 24% 30.41 in 10.0 mi North 9.2 mph - N/A   Clear
5:53 PM 35.1 °F 30.1 °F 7.0 °F 31% 30.45 in 10.0 mi North 5.8 mph - N/A   Clear
6:53 PM 34.0 °F 28.8 °F 8.1 °F 34% 30.48 in 10.0 mi NNE 5.8 mph - N/A   Clear
7:53 PM 33.1 °F 27.7 °F 10.0 °F 38% 30.48 in 10.0 mi North 5.8 mph - N/A   Clear
8:53 PM 30.9 °F 27.5 °F 10.0 °F 42% 30.51 in 10.0 mi North 3.5 mph - N/A   Clear
9:53 PM 30.0 °F 25.2 °F 10.9 °F 45% 30.54 in 10.0 mi North 4.6 mph - N/A   Clear
10:53 PM 30.0 °F 26.5 °F 10.9 °F 45% 30.55 in 10.0 mi NNE 3.5 mph - N/A   Clear
11:53 PM 28.0 °F 22.8 °F 12.0 °F 51% 30.53 in 10.0 mi NNE 4.6 mph - N/A   Clear